Temp
38 38 38 37 36 36 36 35 34 33 32 32 32 31 31 30 30 30 30 30 30 29 28 28 28 28 29 28 28 28 27 27 26 26 26 26 26 26 27 25 25 25
37 37 37 36 35 35 34 34 34 33 32 31 31 31 30 30 30 30 29 29 28 28 27 27 27 27 27 27 26 27 26 26 26 28 26 25 25 25 25 24 24 24
36 36 36 36 35 34 33 33 33 32 32 31 30 30 30 30 29 29 28 28 28 27 27 27 27 26 26 26 26 26 26 25 25 25 25 24 24 25 24 24 24 24
36 36 36 35 34 33 33 32 31 31 31 31 30 30 30 30 29 28 28 28 27 27 26 26 26 26 25 25 25 25 25 25 24 24 25 25 25 24 24 24 24 24
36 35 34 34 34 34 33 32 31 31 31 30 29 29 29 29 28 27 27 26 27 26 26 26 25 25 25 25 25 25 25 24 24 24 24 23 24 24 24 24 23 23
34 35 35 34 34 33 32 31 31 30 29 29 29 29 28 28 27 27 26 26 26 26 25 25 25 24 24 24 24 24 24 24 23 23 23 23 22 23 25 23 22 22
34 33 33 33 32 32 32 31 30 30 29 29 28 28 28 27 27 26 26 26 25 26 25 25 24 24 24 24 24 24 23 23 22 23 23 22 23 22 23 22 22 21
33 32 32 32 31 31 30 30 29 29 28 28 28 27 27 27 26 26 26 25 25 25 25 24 24 24 24 24 24 23 23 24 23 22 22 22 22 21 21 23 21 20
32 32 31 31 31 30 30 29 28 28 28 28 27 26 26 26 27 27 26 25 25 25 24 24 24 24 24 24 23 23 22 22 23 22 22 21 21 20 20 21 20 20
32 31 31 31 30 30 29 28 28 28 28 27 26 26 26 27 28 28 27 26 25 24 24 24 24 24 23 23 23 22 22 22 21 21 21 20 21 20 20 20 20 20
31 31 31 30 30 29 28 28 28 27 27 27 26 27 28 28 28 27 27 27 26 25 24 24 24 24 23 23 22 22 22 21 21 20 20 20 20 20 22 19 19 19
31 30 30 30 30 30 29 29 28 27 27 27 28 28 28 29 28 27 27 27 26 24 24 23 23 23 23 22 21 20 20 20 19 19 19 18 19 19 19 19 19 19
30 30 31 31 31 31 29 29 29 28 28 28 28 28 28 28 27 27 26 26 26 25 24 23 22 21 20 19 18 18 18 18 17 17 17 17 18 18 19 19 19 18
31 32 32 32 32 31 30 30 30 29 28 28 27 28 27 27 27 27 26 25 25 24 23 20 21 20 19 18 18 17 17 17 17 16 16 16 17 17 17 17 18 18
32 32 32 31 30 30 30 30 29 29 28 27 27 27 28 27 27 26 25 24 23 21 20 21 21 21 20 18 17 17 17 18 17 16 16 16 16 16 16 16 16 16
32 32 31 30 30 29 29 29 29 28 26 26 26 27 26 26 26 25 25 23 22 22 21 21 22 21 23 26 23 18 17 19 19 19 18 18 18 18 17 17 16 15
32 31 30 30 30 30 28 27 27 25 24 24 25 24 24 24 24 24 23 22 22 21 21 22 22 21 27 28 28 26 20 19 19 19 20 19 19 18 17 18 17 16
31 31 30 29 29 28 26 26 25 24 23 24 23 23 23 22 23 23 22 22 22 21 21 20 20 25 29 29 29 29 25 21 21 19 19 19 19 18 18 18 17 17
31 30 29 28 28 27 26 25 24 24 23 22 22 22 21 21 23 22 21 21 21 21 20 19 18 26 29 30 30 30 29 25 21 21 19 19 19 19 19 17 16 16
30 29 28 28 27 26 25 24 23 23 23 23 22 21 21 21 21 20 20 19 20 19 18 17 17 24 28 29 29 30 29 27 21 21 19 19 19 19 19 18 16 14
30 29 28 28 26 25 24 24 23 23 22 21 21 21 20 20 20 19 19 18 18 17 15 16 16 24 27 28 28 29 29 28 22 21 20 19 19 19 17 15 14 14
29 28 28 27 26 25 24 24 23 22 21 21 21 21 20 20 19 19 18 17 17 15 14 14 13 24 26 27 27 28 29 25 22 20 18 17 17 17 15 15 15 15
30 29 28 26 25 24 23 23 22 22 22 21 19 20 19 19 18 18 18 17 15 14 14 14 11 20 25 26 27 28 26 20 20 18 16 14 15 15 14 15 16 16
30 28 27 26 25 24 23 23 22 23 22 21 20 19 19 18 18 17 16 15 14 13 13 12 10 15 23 25 26 27 24 19 18 15 14 13 13 16 16 16 16 20
29 28 27 26 24 24 23 22 22 22 22 20 20 21 20 19 17 16 14 13 12 11 14 13 8 12 22 24 26 26 25 19 18 15 13 13 13 13 15 15 15 18
29 27 27 25 24 23 22 23 23 21 20 19 19 20 19 17 15 15 13 11 9 8 10 13 9 5 11 24 25 25 25 19 17 14 13 13 13 12 11 13 15 14
MSLP
1028.38 1028.68 1028.92 1029.22 1029.54 1029.78 1030.00 1030.28 1030.58 1030.78 1031.14 1031.44 1031.60 1032.02 1032.14 1032.44 1032.56 1032.64 1032.86 1033.04 1033.24 1033.42 1033.60 1033.70 1033.74 1033.80 1033.90 1033.96 1034.02 1034.06 1034.20 1034.36 1034.50 1034.62 1034.62 1034.64 1034.76 1034.80 1034.92 1035.06 1035.18 1035.30
1028.46 1028.72 1029.02 1029.34 1029.70 1030.00 1030.22 1030.28 1030.56 1030.78 1031.20 1031.48 1031.72 1031.96 1032.32 1032.46 1032.72 1032.78 1033.04 1033.28 1033.50 1033.68 1033.80 1033.86 1033.94 1034.00 1034.08 1034.14 1034.22 1034.22 1034.42 1034.48 1034.58 1034.82 1034.72 1034.82 1035.04 1035.06 1035.14 1035.32 1035.46 1035.62
1028.46 1028.76 1029.00 1029.22 1029.52 1029.90 1030.18 1030.50 1030.70 1030.98 1031.18 1031.56 1031.82 1032.04 1032.36 1032.58 1032.78 1033.04 1033.28 1033.46 1033.62 1033.80 1033.88 1034.00 1034.08 1034.18 1034.22 1034.32 1034.42 1034.44 1034.52 1034.56 1034.70 1034.98 1034.96 1035.08 1035.22 1035.22 1035.42 1035.52 1035.68 1035.74
1028.46 1028.66 1028.94 1029.30 1029.58 1029.84 1030.20 1030.50 1030.88 1031.08 1031.30 1031.58 1031.92 1032.20 1032.38 1032.68 1032.90 1033.18 1033.46 1033.62 1033.72 1033.90 1034.06 1034.12 1034.20 1034.36 1034.42 1034.52 1034.54 1034.64 1034.76 1034.86 1035.10 1035.16 1035.20 1035.30 1035.38 1035.44 1035.50 1035.62 1035.76 1035.90
1028.36 1028.76 1029.10 1029.36 1029.66 1029.84 1030.06 1030.28 1030.62 1030.94 1031.24 1031.66 1032.06 1032.32 1032.52 1032.78 1033.08 1033.36 1033.58 1033.78 1033.86 1033.98 1034.10 1034.22 1034.40 1034.50 1034.58 1034.64 1034.68 1034.80 1035.00 1035.08 1035.22 1035.22 1035.26 1035.44 1035.60 1035.58 1035.72 1035.64 1035.76 1035.94
1028.58 1028.80 1029.08 1029.28 1029.44 1029.60 1029.88 1030.12 1030.50 1030.90 1031.38 1031.80 1032.12 1032.42 1032.66 1032.90 1033.14 1033.40 1033.62 1033.76 1033.90 1034.00 1034.22 1034.44 1034.54 1034.64 1034.66 1034.76 1034.88 1035.04 1035.20 1035.22 1035.36 1035.34 1035.36 1035.48 1035.68 1035.76 1035.76 1035.80 1035.88 1036.08
1028.46 1028.80 1029.06 1029.28 1029.42 1029.56 1029.68 1030.12 1030.58 1031.02 1031.42 1031.82 1032.24 1032.50 1032.72 1032.94 1033.20 1033.44 1033.68 1033.80 1033.94 1034.14 1034.36 1034.54 1034.58 1034.62 1034.76 1034.86 1034.96 1035.10 1035.32 1035.42 1035.46 1035.44 1035.46 1035.60 1035.62 1035.76 1035.88 1035.94 1036.10 1036.24
1028.40 1028.72 1028.98 1029.18 1029.32 1029.54 1029.72 1030.16 1030.64 1031.06 1031.48 1031.92 1032.16 1032.54 1032.72 1032.94 1033.24 1033.54 1033.74 1033.86 1034.02 1034.26 1034.46 1034.58 1034.60 1034.62 1034.74 1034.84 1034.94 1035.16 1035.38 1035.52 1035.50 1035.46 1035.54 1035.68 1035.78 1035.94 1036.06 1036.16 1036.28 1036.36
1028.32 1028.64 1028.90 1029.06 1029.20 1029.44 1029.74 1030.16 1030.64 1031.10 1031.50 1031.74 1032.14 1032.50 1032.78 1032.90 1033.14 1033.38 1033.58 1033.78 1033.98 1034.24 1034.40 1034.48 1034.54 1034.58 1034.74 1034.80 1034.96 1035.12 1035.26 1035.42 1035.48 1035.54 1035.66 1035.82 1035.96 1036.12 1036.24 1036.34 1036.36 1036.46
1028.30 1028.56 1028.78 1028.94 1029.08 1029.34 1029.68 1030.12 1030.54 1030.98 1031.38 1031.74 1032.10 1032.42 1032.64 1032.92 1033.08 1033.22 1033.44 1033.64 1033.88 1034.16 1034.28 1034.34 1034.44 1034.52 1034.64 1034.78 1034.92 1035.04 1035.14 1035.30 1035.48 1035.68 1035.84 1036.00 1036.12 1036.20 1036.32 1036.42 1036.52 1036.60
1028.24 1028.46 1028.58 1028.78 1028.96 1029.36 1029.72 1030.16 1030.52 1030.88 1031.26 1031.56 1031.96 1032.30 1032.60 1032.90 1033.18 1033.40 1033.50 1033.62 1033.80 1033.96 1034.14 1034.26 1034.30 1034.36 1034.48 1034.72 1034.92 1035.06 1035.18 1035.34 1035.60 1035.82 1036.00 1036.12 1036.18 1036.30 1036.42 1036.54 1036.64 1036.66
1028.26 1028.36 1028.42 1028.52 1028.84 1029.30 1029.78 1030.18 1030.60 1030.94 1031.20 1031.52 1031.70 1032.04 1032.52 1032.90 1033.16 1033.48 1033.62 1033.80 1033.98 1034.04 1034.06 1034.12 1034.16 1034.22 1034.38 1034.60 1034.86 1035.08 1035.28 1035.54 1035.80 1035.98 1036.12 1036.20 1036.28 1036.40 1036.52 1036.60 1036.68 1036.68
1028.12 1028.16 1028.24 1028.40 1028.70 1029.14 1029.72 1030.18 1030.64 1031.08 1031.34 1031.50 1031.72 1031.96 1032.34 1032.76 1033.16 1033.38 1033.66 1034.00 1034.24 1034.22 1034.10 1034.04 1034.08 1034.20 1034.38 1034.66 1034.92 1035.16 1035.42 1035.72 1035.94 1036.10 1036.20 1036.28 1036.38 1036.46 1036.54 1036.60 1036.60 1036.60
1027.86 1028.04 1028.18 1028.32 1028.64 1029.12 1029.60 1030.00 1030.44 1030.92 1031.30 1031.64 1031.90 1032.14 1032.42 1032.70 1032.94 1033.18 1033.58 1034.12 1034.50 1034.46 1034.26 1034.14 1034.12 1034.26 1034.50 1034.82 1035.06 1035.28 1035.58 1035.86 1036.04 1036.14 1036.24 1036.34 1036.42 1036.48 1036.52 1036.54 1036.52 1036.54
1027.58 1027.88 1028.16 1028.42 1028.72 1029.08 1029.50 1029.88 1030.26 1030.62 1031.12 1031.60 1031.98 1032.22 1032.40 1032.50 1032.72 1033.02 1033.44 1033.98 1034.42 1034.36 1034.14 1034.12 1034.12 1034.26 1034.56 1034.82 1035.10 1035.44 1035.70 1035.92 1036.00 1036.12 1036.20 1036.36 1036.48 1036.52 1036.50 1036.46 1036.46 1036.44
1027.30 1027.66 1028.06 1028.42 1028.70 1028.98 1029.34 1029.74 1030.12 1030.50 1030.94 1031.42 1031.84 1032.10 1032.22 1032.36 1032.64 1033.04 1033.36 1033.68 1033.96 1033.94 1033.94 1034.06 1034.14 1034.30 1034.44 1034.60 1034.98 1035.44 1035.70 1035.82 1035.94 1036.08 1036.24 1036.36 1036.46 1036.50 1036.48 1036.40 1036.38 1036.38
1027.12 1027.50 1027.90 1028.22 1028.50 1028.90 1029.34 1029.76 1030.16 1030.54 1030.94 1031.34 1031.72 1031.94 1032.00 1032.22 1032.52 1032.82 1033.14 1033.48 1033.56 1033.48 1033.64 1033.92 1034.10 1034.20 1034.18 1034.28 1034.66 1035.10 1035.44 1035.62 1035.84 1036.04 1036.10 1036.26 1036.28 1036.36 1036.38 1036.32 1036.28 1036.24
1026.80 1027.18 1027.60 1027.92 1028.28 1028.64 1029.14 1029.58 1029.98 1030.42 1030.88 1031.28 1031.68 1031.86 1031.98 1032.24 1032.46 1032.68 1033.06 1033.38 1033.44 1033.40 1033.52 1033.74 1033.94 1033.98 1033.94 1034.12 1034.36 1034.56 1034.96 1035.30 1035.52 1035.80 1035.98 1036.04 1036.12 1036.16 1036.14 1036.10 1036.06 1036.12
1026.58 1026.94 1027.30 1027.72 1028.10 1028.56 1029.10 1029.58 1029.90 1030.32 1030.74 1031.20 1031.56 1031.76 1032.06 1032.36 1032.56 1032.92 1033.18 1033.36 1033.32 1033.26 1033.48 1033.66 1033.82 1033.72 1033.76 1033.94 1034.04 1034.04 1034.20 1034.72 1035.14 1035.48 1035.72 1035.86 1035.88 1035.90 1035.92 1035.94 1035.94 1036.04
1026.32 1026.76 1027.10 1027.50 1028.02 1028.58 1029.08 1029.50 1029.86 1030.06 1030.48 1030.90 1031.22 1031.50 1031.68 1031.98 1032.38 1032.68 1032.96 1033.12 1033.12 1033.22 1033.42 1033.64 1033.72 1033.64 1033.64 1033.78 1033.80 1033.78 1033.90 1034.22 1034.86 1035.24 1035.52 1035.62 1035.62 1035.66 1035.70 1035.74 1035.88 1036.02
1026.20 1026.60 1026.98 1027.46 1027.98 1028.48 1028.94 1029.36 1029.68 1030.10 1030.50 1030.82 1031.06 1031.16 1031.38 1031.66 1032.00 1032.44 1032.70 1032.88 1033.04 1033.24 1033.38 1033.54 1033.66 1033.60 1033.56 1033.66 1033.64 1033.60 1033.70 1034.00 1034.62 1034.96 1035.22 1035.36 1035.40 1035.48 1035.60 1035.72 1035.86 1035.94
1025.96 1026.38 1026.80 1027.24 1027.78 1028.30 1028.72 1029.08 1029.50 1029.80 1030.12 1030.54 1030.84 1031.08 1031.40 1031.74 1032.12 1032.38 1032.50 1032.64 1032.88 1033.12 1033.28 1033.28 1033.56 1033.42 1033.44 1033.44 1033.48 1033.44 1033.52 1033.88 1034.36 1034.76 1035.02 1035.18 1035.38 1035.46 1035.58 1035.62 1035.66 1035.72
1025.60 1026.04 1026.48 1026.96 1027.44 1027.88 1028.30 1028.68 1029.16 1029.68 1030.10 1030.40 1030.64 1030.78 1031.04 1031.38 1031.60 1031.80 1032.04 1032.36 1032.66 1032.90 1032.94 1032.96 1033.36 1033.34 1033.22 1033.22 1033.24 1033.24 1033.38 1033.90 1034.20 1034.62 1034.96 1035.20 1035.34 1035.40 1035.38 1035.42 1035.48 1035.46
1025.56 1025.92 1026.22 1026.58 1027.02 1027.30 1027.64 1028.20 1028.80 1029.28 1029.54 1029.78 1029.80 1030.12 1030.70 1030.88 1031.20 1031.66 1032.00 1032.20 1032.30 1032.46 1032.62 1032.50 1032.84 1033.30 1033.08 1033.00 1033.02 1033.02 1033.30 1033.76 1034.06 1034.50 1034.80 1035.04 1035.20 1035.18 1035.24 1035.28 1035.24 1035.12
1025.14 1025.58 1025.90 1026.26 1026.56 1026.90 1027.36 1027.84 1028.26 1028.50 1028.92 1029.52 1029.70 1029.92 1030.18 1030.66 1031.16 1031.36 1031.78 1032.12 1032.24 1032.38 1032.66 1032.60 1032.74 1033.08 1032.90 1032.82 1032.82 1032.88 1033.04 1033.50 1033.82 1034.26 1034.58 1034.74 1034.90 1035.12 1035.14 1035.14 1035.08 1034.96
1024.80 1025.18 1025.54 1025.92 1026.24 1026.78 1027.32 1027.56 1027.98 1028.60 1028.92 1029.30 1029.62 1029.82 1030.20 1030.70 1031.20 1031.38 1031.42 1031.70 1032.16 1032.56 1032.72 1032.66 1032.72 1033.00 1032.96 1032.60 1032.64 1032.70 1032.76 1033.14 1033.46 1033.80 1034.04 1034.42 1034.78 1035.00 1035.20 1035.06 1034.92 1034.86
Wind_Speed
7 6 8 8 7 7 8 9 7 8 7 6 8 6 7 6 5 7 6 6 6 6 5 4 4 5 5 5 5 6 6 6 6 5 6 6 6 6 7 6 5 5
7 7 7 7 7 6 6 7 8 8 8 7 7 7 6 6 5 6 7 7 5 5 4 5 5 5 5 5 5 6 6 5 6 3 6 6 5 5 6 5 5 3
8 8 9 10 10 9 8 7 7 7 8 7 7 6 7 5 7 6 6 6 6 5 5 5 5 5 5 5 4 5 6 6 6 4 6 5 4 5 4 4 5 4
8 9 9 9 9 10 9 9 7 7 7 8 7 6 6 6 6 7 5 5 6 5 5 5 5 5 5 5 5 6 5 5 4 4 5 5 4 5 4 4 4 5
10 9 8 8 8 9 9 10 10 8 8 7 7 6 7 7 7 6 6 5 5 6 5 5 4 4 4 5 5 6 5 5 4 4 5 5 4 4 3 5 4 5
7 8 9 10 10 11 10 10 9 9 9 8 7 6 6 6 6 6 6 6 5 6 5 4 5 4 5 5 5 5 5 5 4 4 5 5 4 4 4 4 4 4
10 10 10 9 9 9 10 10 9 8 7 7 7 6 7 7 6 6 5 6 6 6 5 4 5 5 4 5 5 6 5 4 3 4 5 4 4 5 4 4 3 3
11 9 10 9 10 10 10 10 9 8 8 7 7 6 6 7 6 5 5 6 6 6 5 5 4 5 4 4 6 6 4 3 4 4 4 4 4 4 3 3 2 2
10 10 10 10 11 10 10 10 9 8 8 9 8 7 5 6 7 7 7 6 6 6 5 5 5 5 4 5 5 5 5 4 4 4 4 3 3 3 2 1 2 1
11 10 11 11 11 10 11 10 9 9 8 8 7 7 8 6 7 7 7 7 7 6 5 6 5 5 5 5 5 5 5 5 4 4 3 3 3 2 2 1 0 0
11 11 12 11 11 10 11 10 10 9 8 9 8 8 7 6 6 5 6 7 7 7 6 5 6 6 6 5 4 4 5 5 4 3 3 3 2 1 2 1 0 0
11 11 12 12 12 11 11 10 9 8 8 7 8 9 8 6 7 6 6 6 4 5 6 6 5 6 6 6 5 5 5 4 3 3 2 2 1 1 0 0 0 1
12 11 11 11 11 11 10 9 9 8 8 8 7 9 9 8 7 7 4 4 4 5 5 5 6 5 6 5 5 5 4 4 3 3 2 1 0 0 0 0 0 1
11 10 10 11 10 10 10 10 9 9 8 6 7 8 8 8 9 7 6 4 4 3 4 4 5 5 5 5 4 5 4 3 3 3 2 0 0 0 0 0 1 1
11 9 8 9 10 10 10 10 10 9 8 7 7 7 7 7 7 6 6 6 4 4 4 4 5 5 5 5 5 4 4 4 3 3 1 1 0 1 1 0 1 2
11 10 10 10 11 11 11 11 10 9 9 9 9 8 7 7 7 7 7 8 8 6 5 4 4 4 6 10 8 5 5 4 4 2 2 1 1 2 2 1 2 2
11 11 11 12 11 10 9 9 10 8 8 8 7 7 9 8 8 9 8 8 8 7 7 5 4 4 9 10 11 12 7 5 4 3 3 3 3 3 3 2 2 2
12 12 12 12 11 11 11 10 9 9 9 8 8 8 6 6 8 8 7 7 6 6 6 6 5 7 11 11 12 13 10 6 4 3 4 4 4 4 3 3 2 2
12 13 13 11 11 10 10 9 10 10 9 9 9 7 6 6 7 7 7 6 6 7 7 6 5 9 11 12 12 12 11 8 5 5 4 4 4 4 4 3 2 1
12 11 11 11 10 9 9 10 10 11 9 8 7 7 8 6 7 8 7 7 7 7 6 5 6 8 11 11 11 11 11 8 5 5 4 5 5 4 4 2 1 2
12 11 11 10 10 10 10 10 10 9 9 8 9 9 10 10 10 10 8 7 6 6 5 6 5 10 11 11 10 10 11 9 5 5 5 4 4 4 2 2 3 3
11 11 11 11 11 10 11 12 11 11 11 9 8 7 6 4 4 5 8 8 7 6 6 7 5 11 12 12 11 10 12 5 5 5 4 3 4 4 3 3 3 4
13 12 12 12 12 13 13 12 12 10 8 7 8 9 11 9 9 9 8 8 8 8 8 6 5 9 12 12 11 12 9 4 5 4 3 3 3 3 3 3 4 4
12 12 13 13 13 14 14 12 9 8 10 9 12 12 11 11 9 7 7 8 9 10 9 8 7 8 12 11 12 13 9 6 5 5 4 3 3 4 3 4 5 10
11 12 12 13 13 13 12 12 12 13 10 9 8 8 9 6 7 8 7 6 7 7 7 8 6 7 11 12 13 13 10 5 6 5 5 4 4 4 3 4 5 7
11 13 12 13 13 11 9 11 8 7 9 10 8 7 7 6 6 6 9 8 6 6 7 6 6 5 6 12 12 14 14 6 6 7 7 4 4 4 4 4 5 5
Wind_Direction
134 135 138 134 133 135 138 135 134 127 125 129 126 129 119 118 105 97 95 89 86 87 87 87 88 89 86 81 83 85 78 85 78 73 77 79 76 82 78 72 66 82
140 137 131 126 124 125 126 131 134 132 130 127 124 119 111 111 100 103 104 99 93 94 95 90 86 90 92 90 85 89 84 79 77 60 78 74 78 79 82 81 82 77
143 142 144 146 145 141 134 128 126 127 124 123 116 115 118 114 112 102 105 110 108 104 94 94 92 88 90 90 88 86 88 83 81 75 78 78 75 79 80 86 76 73
150 150 147 143 142 139 137 129 126 120 119 119 125 127 122 121 113 113 111 108 110 106 100 92 94 90 93 94 94 83 82 82 92 96 89 70 65 79 73 80 78 62
151 146 145 141 140 138 138 133 133 132 127 126 121 123 125 123 119 119 119 117 118 112 103 100 94 98 100 94 91 95 85 85 74 81 85 79 59 74 67 75 70 61
143 146 148 149 149 146 140 136 136 133 133 133 135 128 127 127 128 134 135 131 126 115 109 107 104 97 98 99 93 91 97 87 78 85 79 81 71 59 66 65 68 62
152 153 152 150 146 144 134 134 132 132 135 134 127 137 139 138 140 141 138 131 123 119 121 125 118 112 109 109 100 97 88 93 85 83 87 72 72 53 49 61 61 67
155 153 151 151 145 140 134 136 137 139 139 140 142 148 145 141 140 136 133 130 125 129 132 130 125 120 120 112 108 104 94 93 88 83 81 73 71 65 46 45 62 70
154 155 155 154 146 144 140 141 140 141 147 147 150 148 143 145 148 146 144 141 136 142 142 135 131 125 120 112 111 111 109 95 90 88 90 91 83 84 75 58 53 54
161 157 156 156 150 150 147 147 146 149 149 146 148 148 149 156 153 152 149 149 147 149 147 141 135 127 117 113 116 113 106 99 90 91 98 107 114 106 86 77 111 92
164 163 160 159 152 151 151 149 151 150 151 151 149 151 153 141 138 147 151 150 154 156 151 147 143 133 122 115 110 108 106 103 98 97 103 108 119 127 100 144 262 221
168 168 166 159 154 152 153 154 152 154 153 154 155 151 150 156 140 145 156 151 160 160 153 146 139 129 124 122 116 107 102 100 107 108 111 112 110 125 149 234 222 280
174 174 167 160 158 154 152 152 155 156 157 159 160 155 156 156 135 131 136 156 173 167 152 141 129 122 117 113 112 109 113 116 112 117 118 118 146 177 236 240 309 318
177 171 167 162 154 152 155 157 155 157 158 153 151 158 159 161 160 151 132 137 198 169 141 126 121 115 111 117 121 121 117 127 140 138 133 80 231 293 273 301 317 325
169 167 162 158 155 155 158 160 161 159 153 153 161 160 162 162 153 142 137 143 169 165 140 130 126 130 136 137 130 130 135 144 146 141 144 167 246 265 284 312 317 306
168 164 164 161 161 163 164 163 161 157 155 160 168 168 162 155 150 152 158 166 172 163 142 139 145 138 158 158 151 152 157 149 143 155 164 203 222 251 255 252 256 251
167 168 165 169 168 163 163 162 160 159 162 166 167 169 165 159 159 161 168 173 175 161 156 153 157 164 174 180 180 173 159 154 158 173 194 203 216 226 233 227 238 237
173 168 170 171 167 170 166 166 161 161 166 170 170 169 167 157 167 170 168 173 171 161 160 168 167 182 184 190 191 184 169 163 168 183 194 205 209 221 231 225 217 203
174 174 174 171 173 167 165 162 164 167 169 167 176 172 151 165 167 163 180 181 177 171 177 178 175 188 192 198 201 199 191 175 168 186 197 210 213 216 223 229 213 215
176 175 175 173 167 164 164 168 171 179 176 174 165 158 167 169 173 180 181 186 184 181 178 182 179 198 196 204 205 202 200 191 146 185 206 213 214 222 226 215 200 224
178 177 175 171 169 166 168 176 180 176 174 174 174 173 172 182 183 184 190 185 185 181 179 188 194 196 200 205 205 201 199 194 145 188 207 211 214 221 228 229 243 242
179 178 176 172 169 172 176 183 184 183 179 176 174 176 177 162 185 187 187 189 185 180 180 198 203 200 204 206 205 203 198 183 158 173 203 204 221 224 223 227 223 232
182 179 178 176 177 178 185 186 183 184 181 173 174 177 167 186 191 192 190 184 183 186 191 198 197 206 205 204 205 203 195 137 164 160 178 196 222 227 226 227 231 232
183 182 182 183 182 187 188 187 183 184 187 182 183 178 186 197 186 183 190 189 188 192 193 190 198 206 204 203 203 204 186 158 163 160 178 196 208 229 218 237 238 247
182 186 189 187 189 191 186 183 186 190 185 179 191 188 194 180 181 185 187 193 198 196 191 194 194 202 202 201 204 203 196 163 172 168 189 196 195 217 240 227 240 255
187 188 190 188 192 188 187 193 184 172 180 181 187 186 180 178 187 192 190 196 184 184 204 202 192 206 211 202 205 206 201 170 167 161 183 185 197 218 216 252 241 237